| time (UTC) | temp C | wind direction | speed KPH | gust KPH | rain 1hr cm | rain 24hr cm | rain mn cm | humidity % | barometer mb |
| 20260507124606 | 10 | 334 | 0.0 | 1.6 | 0.00 | 0.71 | 0.13 | 79 | 1013.3 |
| 20260507124051 | 10 | 353 | 0.0 | 1.6 | 0.00 | 0.71 | 0.13 | 80 | 1013.2 |
| 20260507123549 | 10 | 0 | 0.0 | 1.6 | 0.00 | 0.71 | 0.13 | 81 | 1013.2 |
| 20260507123100 | 10 | 0 | 0.0 | 3.2 | 0.00 | 0.71 | 0.13 | 80 | 1013.3 |
| 20260507122550 | 10 | 16 | 0.0 | 3.2 | 0.00 | 0.71 | 0.13 | 79 | 1013.2 |
| 20260507122054 | 10 | 0 | 0.0 | 4.8 | 0.00 | 0.71 | 0.13 | 80 | 1013.2 |
| 20260507121556 | 10 | 39 | 0.0 | 4.8 | 0.00 | 0.71 | 0.13 | 81 | 1013.1 |
| 20260507121048 | 10 | 8 | 0.0 | 1.6 | 0.00 | 0.71 | 0.13 | 81 | 1013.0 |
| 20260507120552 | 10 | 7 | 0.0 | 3.2 | 0.00 | 0.71 | 0.13 | 81 | 1013.0 |
| 20260507120054 | 10 | 0 | 0.0 | 3.2 | 0.00 | 0.71 | 0.13 | 82 | 1012.7 |
| 20260507115551 | 10 | 25 | 1.6 | 4.8 | 0.00 | 0.71 | 0.13 | 83 | 1012.9 |
| 20260507115050 | 10 | 2 | 0.0 | 4.8 | 0.00 | 0.71 | 0.13 | 83 | 1012.8 |
| 20260507114550 | 10 | 1 | 0.0 | 4.8 | 0.00 | 0.71 | 0.13 | 83 | 1012.9 |
| 20260507114051 | 10 | 327 | 0.0 | 1.6 | 0.00 | 0.71 | 0.13 | 86 | 1012.8 |
| 20260507113552 | 10 | 326 | 0.0 | 1.6 | 0.00 | 0.71 | 0.13 | 85 | 1012.7 |
| 20260507113053 | 10 | 0 | 0.0 | 1.6 | 0.00 | 0.71 | 0.13 | 86 | 1012.8 |
| 20260507112551 | 10 | 327 | 0.0 | 4.8 | 0.00 | 0.71 | 0.13 | 86 | 1012.8 |
| 20260507112050 | 10 | 38 | 1.6 | 4.8 | 0.00 | 0.71 | 0.13 | 86 | 1012.8 |
| 20260507111556 | 10 | 325 | 0.0 | 3.2 | 0.00 | 0.71 | 0.13 | 86 | 1012.8 |
| 20260507111048 | 10 | 49 | 1.6 | 3.2 | 0.00 | 0.71 | 0.13 | 88 | 1012.8 |
| 20260507110548 | 10 | 8 | 1.6 | 3.2 | 0.00 | 0.71 | 0.13 | 89 | 1012.7 |
| 20260507110059 | 10 | 295 | 0.0 | 3.2 | 0.00 | 0.71 | 0.13 | 90 | 1012.6 |
| 20260507105551 | 10 | 281 | 0.0 | 1.6 | 0.00 | 0.71 | 0.13 | 91 | 1012.6 |
| 20260507105052 | 10 | 281 | 0.0 | 1.6 | 0.00 | 0.71 | 0.13 | 91 | 1012.5 |
| 20260507104555 | 10 | 0 | 0.0 | 1.6 | 0.00 | 0.71 | 0.13 | 91 | 1012.4 |
| 20260507104052 | 10 | 281 | 0.0 | 1.6 | 0.00 | 0.71 | 0.13 | 92 | 1012.5 |
| 20260507103550 | 10 | 0 | 0.0 | 1.6 | 0.00 | 0.71 | 0.13 | 92 | 1012.4 |
| 20260507103059 | 10 | 281 | 0.0 | 1.6 | 0.00 | 0.71 | 0.13 | 92 | 1012.4 |
| 20260507102552 | 10 | 32 | 0.0 | 1.6 | 0.00 | 0.71 | 0.13 | 92 | 1012.2 |
| 20260507102051 | 10 | 0 | 0.0 | 0.0 | 0.00 | 0.71 | 0.13 | 92 | 1012.0 |
| 20260507101557 | 10 | 32 | 0.0 | 1.6 | 0.00 | 0.71 | 0.13 | 92 | 1012.1 |
| 20260507101051 | 10 | 0 | 0.0 | 1.6 | 0.00 | 0.71 | 0.13 | 92 | 1012.0 |
| 20260507100552 | 10 | 0 | 0.0 | 1.6 | 0.00 | 0.71 | 0.13 | 92 | 1011.9 |
| 20260507100058 | 10 | 0 | 0.0 | 1.6 | 0.00 | 0.71 | 0.13 | 92 | 1011.9 |
| 20260507095552 | 10 | 0 | 0.0 | 1.6 | 0.00 | 0.71 | 0.13 | 92 | 1012.0 |
| 20260507095052 | 10 | 0 | 0.0 | 1.6 | 0.00 | 0.71 | 0.13 | 92 | 1012.1 |
| 20260507094555 | 10 | 0 | 0.0 | 0.0 | 0.00 | 0.71 | 0.13 | 92 | 1012.0 |
| 20260507094052 | 10 | 0 | 0.0 | 1.6 | 0.00 | 0.71 | 0.13 | 92 | 1011.9 |
| 20260507093551 | 10 | 0 | 0.0 | 1.6 | 0.00 | 0.71 | 0.13 | 92 | 1011.9 |
| 20260507093053 | 10 | 0 | 1.6 | 3.2 | 0.00 | 0.71 | 0.13 | 92 | 1011.7 |
| 20260507092551 | 10 | 25 | 0.0 | 3.2 | 0.00 | 0.71 | 0.13 | 92 | 1011.8 |
| 20260507092051 | 10 | 0 | 0.0 | 1.6 | 0.00 | 0.71 | 0.13 | 92 | 1011.9 |
| 20260507091559 | 10 | 0 | 0.0 | 1.6 | 0.00 | 0.71 | 0.13 | 92 | 1012.0 |
| 20260507091051 | 10 | 0 | 0.0 | 1.6 | 0.00 | 0.71 | 0.13 | 91 | 1012.1 |
| 20260507090549 | 10 | 0 | 0.0 | 1.6 | 0.00 | 0.71 | 0.13 | 91 | 1012.0 |
| 20260507090059 | 10 | 0 | 0.0 | 1.6 | 0.00 | 0.71 | 0.13 | 92 | 1012.0 |
| 20260507085555 | 10 | 264 | 0.0 | 1.6 | 0.00 | 0.71 | 0.13 | 92 | 1011.9 |
| 20260507085048 | 10 | 332 | 0.0 | 1.6 | 0.00 | 0.71 | 0.13 | 92 | 1011.7 |
| 20260507084558 | 10 | 332 | 0.0 | 1.6 | 0.00 | 0.71 | 0.13 | 92 | 1011.7 |
| 20260507084047 | 10 | 332 | 1.6 | 1.6 | 0.00 | 0.71 | 0.13 | 92 | 1011.6 |
| 20260507083549 | 10 | 358 | 0.0 | 3.2 | 0.00 | 0.71 | 0.13 | 91 | 1011.7 |
| 20260507083057 | 10 | 360 | 0.0 | 3.2 | 0.00 | 0.71 | 0.13 | 91 | 1011.7 |
| 20260507082547 | 10 | 356 | 0.0 | 3.2 | 0.00 | 0.71 | 0.13 | 91 | 1011.5 |
| 20260507082051 | 10 | 339 | 1.6 | 3.2 | 0.00 | 0.71 | 0.13 | 91 | 1011.5 |
| 20260507081555 | 10 | 340 | 0.0 | 6.4 | 0.00 | 0.71 | 0.13 | 92 | 1011.4 |
| 20260507081048 | 11 | 32 | 0.0 | 6.4 | 0.00 | 0.71 | 0.13 | 92 | 1011.1 |
| 20260507080549 | 11 | 41 | 1.6 | 6.4 | 0.00 | 0.71 | 0.13 | 92 | 1011.1 |
| 20260507080116 | 11 | 35 | 3.2 | 4.8 | 0.00 | 0.71 | 0.13 | 92 | 1011.2 |
| 20260507075551 | 11 | 27 | 1.6 | 6.4 | 0.00 | 0.71 | 0.13 | 92 | 1011.2 |
| 20260507075049 | 11 | 48 | 0.0 | 6.4 | 0.00 | 0.71 | 0.13 | 92 | 1011.1 |
| 20260507074601 | 11 | 47 | 1.6 | 6.4 | 0.00 | 0.71 | 0.13 | 92 | 1011.0 |
| 20260507074049 | 11 | 8 | 1.6 | 8.0 | 0.00 | 0.71 | 0.13 | 92 | 1010.9 |
| 20260507073549 | 11 | 24 | 1.6 | 9.7 | 0.00 | 0.71 | 0.13 | 91 | 1010.8 |
| 20260507073103 | 11 | 23 | 3.2 | 9.7 | 0.00 | 0.71 | 0.13 | 91 | 1010.8 |
| 20260507072549 | 11 | 349 | 3.2 | 9.7 | 0.00 | 0.71 | 0.13 | 91 | 1011.0 |
| 20260507072049 | 11 | 45 | 4.8 | 9.7 | 0.00 | 0.71 | 0.13 | 92 | 1010.9 |
| 20260507071602 | 11 | 165 | 1.6 | 6.4 | 0.00 | 0.71 | 0.13 | 93 | 1011.0 |
| 20260507071049 | 11 | 58 | 3.2 | 6.4 | 0.00 | 0.71 | 0.13 | 93 | 1010.8 |
| 20260507070547 | 11 | 32 | 1.6 | 6.4 | 0.00 | 0.71 | 0.13 | 93 | 1010.8 |
| 20260507070057 | 11 | 8 | 1.6 | 4.8 | 0.00 | 0.71 | 0.13 | 93 | 1011.1 |
| 20260507065548 | 12 | 16 | 3.2 | 4.8 | 0.00 | 0.71 | 0.13 | 93 | 1011.0 |
| 20260507065049 | 12 | 353 | 0.0 | 4.8 | 0.00 | 0.71 | 0.13 | 94 | 1011.2 |
| 20260507064600 | 12 | 304 | 1.6 | 3.2 | 0.00 | 0.71 | 0.13 | 94 | 1011.1 |
| 20260507064049 | 12 | 340 | 1.6 | 6.4 | 0.00 | 0.71 | 0.13 | 94 | 1011.1 |
| 20260507063549 | 12 | 307 | 1.6 | 6.4 | 0.00 | 0.71 | 0.13 | 94 | 1011.1 |
| 20260507063059 | 12 | 297 | 1.6 | 4.8 | 0.00 | 0.71 | 0.13 | 94 | 1011.2 |
| 20260507062548 | 12 | 0 | 0.0 | 4.8 | 0.00 | 0.71 | 0.13 | 94 | 1010.8 |
| 20260507062048 | 12 | 22 | 1.6 | 6.4 | 0.03 | 0.71 | 0.13 | 94 | 1010.9 |
| 20260507061556 | 12 | 323 | 1.6 | 6.4 | 0.03 | 0.71 | 0.13 | 94 | 1010.8 |
| 20260507061048 | 12 | 25 | 0.0 | 3.2 | 0.03 | 0.71 | 0.13 | 94 | 1011.0 |
| 20260507060547 | 12 | 40 | 0.0 | 3.2 | 0.03 | 0.71 | 0.13 | 94 | 1011.1 |
| 20260507060110 | 12 | 274 | 0.0 | 3.2 | 0.03 | 0.71 | 0.13 | 94 | 1011.3 |
| 20260507055547 | 12 | 0 | 0.0 | 1.6 | 0.03 | 0.71 | 0.13 | 94 | 1011.1 |
| 20260507055049 | 12 | 27 | 0.0 | 8.0 | 0.05 | 0.71 | 0.13 | 93 | 1011.0 |
| 20260507054605 | 12 | 30 | 1.6 | 8.0 | 0.08 | 0.71 | 0.13 | 93 | 1011.0 |
| 20260507054051 | 12 | 353 | 1.6 | 3.2 | 0.10 | 0.71 | 0.13 | 93 | 1011.3 |
| 20260507053548 | 12 | 23 | 1.6 | 3.2 | 0.13 | 0.71 | 0.13 | 93 | 1011.1 |
| 20260507053056 | 12 | 36 | 0.0 | 3.2 | 0.13 | 0.71 | 0.13 | 92 | 1011.2 |
| 20260507052554 | 12 | 0 | 0.0 | 3.2 | 0.13 | 0.71 | 0.13 | 92 | 1011.4 |
| 20260507052051 | 12 | 348 | 0.0 | 4.8 | 0.10 | 0.69 | 0.10 | 92 | 1011.3 |
| 20260507051553 | 12 | 330 | 0.0 | 4.8 | 0.10 | 0.69 | 0.10 | 92 | 1011.6 |
| 20260507051051 | 12 | 0 | 1.6 | 4.8 | 0.10 | 0.69 | 0.10 | 91 | 1011.2 |
| 20260507050547 | 12 | 37 | 0.0 | 4.8 | 0.10 | 0.69 | 0.10 | 92 | 1011.0 |
| 20260507050051 | 13 | 328 | 1.6 | 4.8 | 0.10 | 0.69 | 0.10 | 91 | 1011.1 |
| 20260507045552 | 13 | 64 | 1.6 | 8.0 | 0.10 | 0.69 | 0.10 | 91 | 1011.4 |
| 20260507045051 | 13 | 28 | 3.2 | 8.0 | 0.08 | 0.66 | 0.08 | 90 | 1011.2 |
| 20260507044550 | 13 | 13 | 1.6 | 4.8 | 0.03 | 0.61 | 0.03 | 89 | 1011.2 |
| 20260507044050 | 13 | 316 | 1.6 | 4.8 | 0.03 | 0.61 | 0.03 | 88 | 1011.3 |
| 20260507043548 | 13 | 309 | 1.6 | 4.8 | 0.00 | 0.58 | 0.00 | 87 | 1011.2 |
| 20260507043053 | 14 | 28 | 1.6 | 4.8 | 0.00 | 0.58 | 0.00 | 87 | 1011.1 |
| 20260507042551 | 14 | 16 | 0.0 | 8.0 | 0.00 | 0.58 | 0.00 | 87 | 1011.3 |
| 20260507042052 | 14 | 314 | 1.6 | 14.5 | 0.00 | 0.58 | 0.00 | 86 | 1011.3 |
| 20260507041558 | 15 | 319 | 1.6 | 14.5 | 0.00 | 0.58 | 0.00 | 85 | 1011.3 |
| 20260507041052 | 15 | 19 | 1.6 | 6.4 | 0.00 | 0.58 | 0.00 | 85 | 1011.1 |
| 20260507040550 | 15 | 299 | 3.2 | 6.4 | 0.00 | 0.58 | 0.00 | 83 | 1011.1 |
| 20260507040104 | 15 | 324 | 3.2 | 6.4 | 0.00 | 0.58 | 0.00 | 83 | 1011.0 |
| 20260507035549 | 15 | 314 | 0.0 | 3.2 | 0.00 | 0.58 | 0.58 | 83 | 1010.5 |
| 20260507035049 | 15 | 305 | 0.0 | 3.2 | 0.00 | 0.58 | 0.58 | 82 | 1010.3 |
| 20260507034557 | 15 | 305 | 1.6 | 3.2 | 0.00 | 0.58 | 0.58 | 81 | 1010.4 |
| 20260507034049 | 15 | 314 | 1.6 | 4.8 | 0.00 | 0.58 | 0.58 | 81 | 1010.6 |
| 20260507033549 | 15 | 319 | 1.6 | 4.8 | 0.00 | 0.58 | 0.58 | 81 | 1010.2 |
| 20260507033051 | 15 | 52 | 1.6 | 4.8 | 0.00 | 0.58 | 0.58 | 81 | 1010.1 |
| 20260507032549 | 16 | 67 | 1.6 | 11.3 | 0.00 | 0.58 | 0.58 | 81 | 1010.4 |
| 20260507032049 | 16 | 300 | 3.2 | 11.3 | 0.00 | 0.58 | 0.58 | 81 | 1010.6 |
| 20260507031555 | 16 | 311 | 3.2 | 8.0 | 0.00 | 0.58 | 0.58 | 81 | 1010.5 |
| 20260507031050 | 16 | 53 | 1.6 | 4.8 | 0.00 | 0.58 | 0.58 | 82 | 1010.3 |
| 20260507030549 | 16 | 315 | 1.6 | 3.2 | 0.00 | 0.58 | 0.58 | 82 | 1010.3 |
| 20260507030056 | 16 | 311 | 0.0 | 4.8 | 0.00 | 0.58 | 0.58 | 82 | 1010.5 |
| 20260507025549 | 16 | 311 | 0.0 | 8.0 | 0.00 | 0.58 | 0.58 | 82 | 1010.2 |
| 20260507025049 | 16 | 322 | 1.6 | 9.7 | 0.00 | 0.58 | 0.58 | 82 | 1010.1 |
| 20260507024552 | 16 | 12 | 3.2 | 9.7 | 0.00 | 0.58 | 0.58 | 83 | 1010.1 |
| 20260507024049 | 16 | 36 | 3.2 | 8.0 | 0.00 | 0.58 | 0.58 | 85 | 1010.0 |
| 20260507023552 | 16 | 302 | 3.2 | 6.4 | 0.00 | 0.58 | 0.58 | 84 | 1010.1 |
| 20260507023052 | 16 | 304 | 1.6 | 6.4 | 0.00 | 0.58 | 0.58 | 85 | 1010.1 |
| 20260507022548 | 17 | 354 | 1.6 | 6.4 | 0.00 | 0.58 | 0.58 | 85 | 1009.9 |
| 20260507022049 | 17 | 296 | 3.2 | 11.3 | 0.00 | 0.58 | 0.58 | 85 | 1009.8 |
| 20260507021551 | 17 | 360 | 3.2 | 11.3 | 0.00 | 0.58 | 0.58 | 86 | 1009.6 |
| 20260507021049 | 17 | 325 | 1.6 | 6.4 | 0.00 | 0.58 | 0.58 | 87 | 1009.8 |
| 20260507020549 | 17 | 314 | 1.6 | 4.8 | 0.00 | 0.58 | 0.58 | 88 | 1009.8 |
| 20260507015548 | 17 | 308 | 3.2 | 6.4 | 0.00 | 0.58 | 0.58 | 87 | 1009.9 |
| 20260507015048 | 17 | 284 | 3.2 | 6.4 | 0.00 | 0.58 | 0.58 | 87 | 1009.9 |
| 20260507014602 | 17 | 311 | 3.2 | 6.4 | 0.00 | 0.58 | 0.58 | 86 | 1009.6 |
| 20260507014049 | 17 | 285 | 0.0 | 3.2 | 0.00 | 0.58 | 0.58 | 86 | 1009.6 |
| 20260507013548 | 17 | 292 | 1.6 | 8.0 | 0.00 | 0.58 | 0.58 | 86 | 1009.6 |
| 20260507013051 | 17 | 285 | 1.6 | 8.0 | 0.00 | 0.58 | 0.58 | 85 | 1009.9 |
| 20260507012549 | 17 | 306 | 3.2 | 9.7 | 0.00 | 0.58 | 0.58 | 85 | 1009.9 |
| 20260507012049 | 18 | 311 | 4.8 | 9.7 | 0.00 | 0.58 | 0.58 | 85 | 1010.0 |
| 20260507011601 | 18 | 283 | 1.6 | 9.7 | 0.00 | 0.58 | 0.58 | 84 | 1010.0 |
| 20260507011049 | 18 | 300 | 1.6 | 9.7 | 0.00 | 0.58 | 0.58 | 85 | 1009.8 |
| 20260507010548 | 18 | 274 | 4.8 | 8.0 | 0.00 | 0.58 | 0.58 | 84 | 1010.0 |
| 20260507010052 | 18 | 316 | 1.6 | 11.3 | 0.00 | 0.58 | 0.58 | 85 | 1010.1 |
| 20260507005549 | 18 | 293 | 3.2 | 11.3 | 0.00 | 0.58 | 0.58 | 85 | 1009.9 |
| 20260507005053 | 18 | 283 | 3.2 | 8.0 | 0.00 | 0.58 | 0.58 | 86 | 1009.8 |
| 20260507004553 | 18 | 293 | 0.0 | 1.6 | 0.00 | 0.58 | 0.58 | 87 | 1009.7 |
| 20260507004048 | 18 | 160 | 0.0 | 1.6 | 0.00 | 0.58 | 0.58 | 87 | 1009.5 |
| 20260507003549 | 18 | 159 | 0.0 | 1.6 | 0.00 | 0.58 | 0.58 | 88 | 1009.5 |
| 20260507003052 | 18 | 0 | 0.0 | 0.0 | 0.00 | 0.58 | 0.58 | 87 | 1009.4 |
| 20260507002548 | 18 | 0 | 0.0 | 0.0 | 0.00 | 0.58 | 0.58 | 87 | 1009.5 |
| 20260507002051 | 18 | 0 | 0.0 | 0.0 | 0.00 | 0.58 | 0.58 | 86 | 1009.5 |
| 20260507001605 | 18 | 160 | 0.0 | 1.6 | 0.00 | 0.58 | 0.58 | 86 | 1009.3 |
| 20260507001047 | 18 | 160 | 0.0 | 1.6 | 0.00 | 0.58 | 0.58 | 85 | 1009.2 |
| 20260507000551 | 18 | 160 | 0.0 | 1.6 | 0.00 | 0.58 | 0.58 | 85 | 1009.2 |
| 20260507000058 | 18 | 160 | 0.0 | 1.6 | 0.00 | 0.58 | 0.58 | 85 | 1009.1 |
| 20260506235548 | 19 | 158 | 0.0 | 1.6 | 0.00 | 0.58 | 0.58 | 85 | 1009.1 |
| 20260506235050 | 19 | 0 | 0.0 | 1.6 | 0.00 | 0.58 | 0.58 | 85 | 1009.1 |
| 20260506234555 | 19 | 242 | 0.0 | 3.2 | 0.00 | 0.58 | 0.58 | 85 | 1009.0 |
| 20260506234048 | 19 | 242 | 0.0 | 3.2 | 0.00 | 0.58 | 0.58 | 84 | 1008.7 |
| 20260506233549 | 19 | 146 | 1.6 | 3.2 | 0.00 | 0.58 | 0.58 | 84 | 1008.5 |
| 20260506233052 | 19 | 210 | 1.6 | 3.2 | 0.00 | 0.58 | 0.58 | 83 | 1008.7 |
| 20260506232550 | 19 | 155 | 1.6 | 3.2 | 0.00 | 0.58 | 0.58 | 83 | 1008.8 |
| 20260506232048 | 20 | 164 | 0.0 | 3.2 | 0.00 | 0.58 | 0.58 | 83 | 1008.6 |
| 20260506231551 | 20 | 219 | 1.6 | 4.8 | 0.00 | 0.58 | 0.58 | 83 | 1008.5 |
| 20260506231048 | 20 | 142 | 1.6 | 4.8 | 0.00 | 0.58 | 0.58 | 82 | 1008.4 |
| 20260506230550 | 20 | 230 | 1.6 | 3.2 | 0.00 | 0.58 | 0.58 | 82 | 1008.5 |
| 20260506230053 | 20 | 150 | 0.0 | 3.2 | 0.00 | 0.58 | 0.58 | 82 | 1008.5 |
| 20260506225550 | 20 | 163 | 1.6 | 4.8 | 0.00 | 0.58 | 0.58 | 82 | 1008.5 |
| 20260506225049 | 20 | 153 | 1.6 | 4.8 | 0.00 | 0.58 | 0.58 | 82 | 1008.6 |
| 20260506224554 | 20 | 219 | 0.0 | 3.2 | 0.00 | 0.58 | 0.58 | 82 | 1008.6 |
| 20260506224049 | 20 | 158 | 0.0 | 3.2 | 0.00 | 0.58 | 0.58 | 82 | 1008.4 |
| 20260506223548 | 20 | 212 | 0.0 | 3.2 | 0.00 | 0.58 | 0.58 | 81 | 1008.2 |
| 20260506223055 | 20 | 241 | 0.0 | 3.2 | 0.00 | 0.58 | 0.58 | 82 | 1008.4 |
| 20260506222548 | 20 | 155 | 0.0 | 1.6 | 0.00 | 0.58 | 0.58 | 82 | 1008.5 |
| 20260506222052 | 20 | 223 | 0.0 | 4.8 | 0.00 | 0.58 | 0.58 | 82 | 1008.6 |
| 20260506221553 | 20 | 139 | 0.0 | 6.4 | 0.00 | 0.58 | 0.58 | 82 | 1008.7 |
| 20260506221048 | 20 | 148 | 1.6 | 6.4 | 0.00 | 0.58 | 0.58 | 81 | 1008.6 |
| 20260506220548 | 20 | 162 | 3.2 | 6.4 | 0.00 | 0.58 | 0.58 | 80 | 1008.6 |
| 20260506220106 | 20 | 172 | 1.6 | 8.0 | 0.00 | 0.58 | 0.58 | 81 | 1008.6 |
| 20260506215548 | 20 | 264 | 1.6 | 8.0 | 0.00 | 0.58 | 0.58 | 80 | 1008.5 |
| 20260506215049 | 20 | 124 | 3.2 | 8.0 | 0.00 | 0.58 | 0.58 | 80 | 1008.5 |
| 20260506214552 | 20 | 243 | 0.0 | 9.7 | 0.00 | 0.58 | 0.58 | 80 | 1008.7 |
| 20260506214050 | 20 | 148 | 1.6 | 9.7 | 0.00 | 0.58 | 0.58 | 80 | 1008.6 |
| 20260506213553 | 20 | 133 | 3.2 | 6.4 | 0.00 | 0.58 | 0.58 | 80 | 1008.5 |
| 20260506213100 | 20 | 214 | 3.2 | 9.7 | 0.00 | 0.58 | 0.58 | 79 | 1008.5 |
| 20260506212549 | 20 | 257 | 3.2 | 9.7 | 0.00 | 0.58 | 0.58 | 79 | 1008.2 |
| 20260506212050 | 20 | 252 | 4.8 | 9.7 | 0.00 | 0.58 | 0.58 | 78 | 1008.2 |
| 20260506211555 | 20 | 167 | 1.6 | 9.7 | 0.00 | 0.58 | 0.58 | 79 | 1008.2 |
| 20260506211049 | 20 | 226 | 1.6 | 9.7 | 0.00 | 0.58 | 0.58 | 80 | 1008.2 |
| 20260506210548 | 20 | 119 | 3.2 | 6.4 | 0.00 | 0.58 | 0.58 | 79 | 1008.2 |
| 20260506210119 | 20 | 212 | 3.2 | 8.0 | 0.00 | 0.58 | 0.58 | 79 | 1008.1 |
| 20260506205547 | 20 | 181 | 3.2 | 8.0 | 0.00 | 0.58 | 0.58 | 78 | 1007.9 |
| 20260506205050 | 20 | 0 | 3.2 | 9.7 | 0.00 | 0.58 | 0.58 | 78 | 1008.0 |
| 20260506204558 | 20 | 153 | 4.8 | 9.7 | 0.00 | 0.58 | 0.58 | 79 | 1008.0 |
| 20260506204051 | 20 | 231 | 1.6 | 4.8 | 0.00 | 0.58 | 0.58 | 79 | 1007.8 |
| 20260506203548 | 20 | 155 | 1.6 | 6.4 | 0.00 | 0.58 | 0.58 | 79 | 1007.9 |
| 20260506203141 | 20 | 264 | 1.6 | 6.4 | 0.00 | 0.58 | 0.58 | 80 | 1007.9 |
| 20260506202552 | 20 | 269 | 3.2 | 12.9 | 0.00 | 0.58 | 0.58 | 79 | 1008.1 |
| 20260506202049 | 20 | 247 | 4.8 | 12.9 | 0.00 | 0.58 | 0.58 | 79 | 1008.2 |
| 20260506201558 | 20 | 207 | 4.8 | 11.3 | 0.00 | 0.58 | 0.58 | 79 | 1008.1 |
| 20260506201050 | 20 | 229 | 3.2 | 11.3 | 0.00 | 0.58 | 0.58 | 78 | 1008.0 |
| 20260506200549 | 20 | 94 | 1.6 | 16.1 | 0.00 | 0.58 | 0.58 | 78 | 1008.0 |
| 20260506200056 | 21 | 165 | 3.2 | 16.1 | 0.00 | 0.58 | 0.58 | 77 | 1008.1 |
| 20260506195548 | 21 | 170 | 4.8 | 9.7 | 0.00 | 0.58 | 0.58 | 76 | 1008.1 |
| 20260506195048 | 21 | 264 | 1.6 | 9.7 | 0.00 | 0.58 | 0.58 | 77 | 1007.9 |
| 20260506194558 | 21 | 221 | 3.2 | 9.7 | 0.00 | 0.58 | 0.58 | 77 | 1008.0 |
| 20260506194048 | 21 | 259 | 4.8 | 12.9 | 0.00 | 0.58 | 0.58 | 78 | 1008.0 |
| 20260506193549 | 21 | 200 | 6.4 | 12.9 | 0.00 | 0.58 | 0.58 | 79 | 1008.0 |
| 20260506193057 | 21 | 248 | 4.8 | 11.3 | 0.00 | 0.58 | 0.58 | 77 | 1008.1 |
| 20260506192549 | 21 | 174 | 3.2 | 11.3 | 0.00 | 0.58 | 0.58 | 78 | 1008.0 |
| 20260506192049 | 20 | 241 | 4.8 | 11.3 | 0.00 | 0.58 | 0.58 | 79 | 1008.1 |
| 20260506191604 | 20 | 283 | 3.2 | 16.1 | 0.00 | 0.58 | 0.58 | 79 | 1008.1 |
| 20260506191049 | 20 | 128 | 3.2 | 16.1 | 0.00 | 0.58 | 0.58 | 79 | 1008.3 |
| 20260506190549 | 20 | 141 | 4.8 | 11.3 | 0.00 | 0.58 | 0.58 | 79 | 1008.3 |
| 20260506190100 | 20 | 152 | 1.6 | 12.9 | 0.00 | 0.58 | 0.58 | 81 | 1008.3 |
| 20260506185548 | 20 | 284 | 4.8 | 12.9 | 0.00 | 0.58 | 0.58 | 80 | 1008.3 |
| 20260506185049 | 20 | 255 | 6.4 | 12.9 | 0.00 | 0.58 | 0.58 | 81 | 1008.4 |
| 20260506184603 | 20 | 246 | 4.8 | 11.3 | 0.00 | 0.58 | 0.58 | 82 | 1008.5 |
| 20260506184052 | 19 | 107 | 4.8 | 14.5 | 0.00 | 0.58 | 0.58 | 83 | 1008.6 |
| 20260506183548 | 19 | 6 | 6.4 | 17.7 | 0.00 | 0.58 | 0.58 | 83 | 1008.7 |
| 20260506183105 | 18 | 184 | 4.8 | 17.7 | 0.00 | 0.58 | 0.58 | 82 | 1008.7 |
| 20260506182548 | 18 | 265 | 6.4 | 16.1 | 0.00 | 0.58 | 0.58 | 83 | 1008.7 |
| 20260506182048 | 18 | 250 | 4.8 | 14.5 | 0.00 | 0.58 | 0.58 | 84 | 1008.7 |
| 20260506181601 | 18 | 108 | 4.8 | 16.1 | 0.00 | 0.58 | 0.58 | 85 | 1008.6 |
| 20260506181051 | 18 | 294 | 6.4 | 16.1 | 0.00 | 0.58 | 0.58 | 84 | 1008.7 |
| 20260506180551 | 18 | 167 | 3.2 | 16.1 | 0.00 | 0.58 | 0.58 | 84 | 1008.8 |
| 20260506180058 | 18 | 269 | 4.8 | 17.7 | 0.00 | 0.58 | 0.58 | 84 | 1008.7 |
| 20260506175548 | 18 | 259 | 4.8 | 19.3 | 0.00 | 0.58 | 0.58 | 86 | 1008.8 |
| 20260506175052 | 18 | 147 | 6.4 | 19.3 | 0.00 | 0.58 | 0.58 | 86 | 1008.9 |
| 20260506174608 | 17 | 182 | 4.8 | 16.1 | 0.00 | 0.58 | 0.58 | 86 | 1008.8 |
| 20260506174052 | 17 | 252 | 6.4 | 16.1 | 0.00 | 0.58 | 0.58 | 86 | 1009.0 |
| 20260506173548 | 17 | 205 | 3.2 | 12.9 | 0.00 | 0.58 | 0.58 | 87 | 1008.9 |
| 20260506173056 | 17 | 231 | 6.4 | 12.9 | 0.00 | 0.58 | 0.58 | 87 | 1008.8 |
| 20260506172550 | 17 | 225 | 6.4 | 12.9 | 0.00 | 0.58 | 0.58 | 88 | 1008.9 |
| 20260506172048 | 17 | 164 | 3.2 | 12.9 | 0.00 | 0.58 | 0.58 | 88 | 1009.0 |
| 20260506171610 | 17 | 110 | 4.8 | 17.7 | 0.00 | 0.58 | 0.58 | 89 | 1009.1 |
| 20260506171048 | 17 | 243 | 3.2 | 17.7 | 0.00 | 0.58 | 0.58 | 90 | 1009.0 |
| 20260506170550 | 17 | 273 | 4.8 | 14.5 | 0.00 | 0.58 | 0.58 | 89 | 1009.0 |
| 20260506170054 | 16 | 278 | 4.8 | 14.5 | 0.00 | 0.58 | 0.58 | 90 | 1009.1 |
| 20260506165549 | 16 | 263 | 6.4 | 14.5 | 0.00 | 0.58 | 0.58 | 90 | 1009.1 |
| 20260506165050 | 16 | 156 | 1.6 | 17.7 | 0.00 | 0.58 | 0.58 | 91 | 1009.1 |
| 20260506164554 | 16 | 105 | 4.8 | 17.7 | 0.00 | 0.58 | 0.58 | 91 | 1009.1 |
| 20260506164049 | 16 | 224 | 4.8 | 17.7 | 0.00 | 0.58 | 0.58 | 91 | 1009.2 |
| 20260506163549 | 16 | 203 | 4.8 | 16.1 | 0.00 | 0.58 | 0.58 | 91 | 1009.2 |
| 20260506163107 | 16 | 136 | 4.8 | 17.7 | 0.00 | 0.58 | 0.58 | 91 | 1009.1 |
| 20260506162548 | 16 | 226 | 3.2 | 17.7 | 0.00 | 0.58 | 0.58 | 92 | 1009.1 |
| 20260506162052 | 16 | 218 | 4.8 | 16.1 | 0.00 | 0.58 | 0.58 | 92 | 1009.2 |
| 20260506161553 | 16 | 208 | 3.2 | 16.1 | 0.03 | 0.58 | 0.58 | 92 | 1009.1 |
| 20260506161048 | 16 | 129 | 8.0 | 16.1 | 0.03 | 0.58 | 0.58 | 91 | 1009.3 |
| 20260506160548 | 16 | 156 | 6.4 | 16.1 | 0.03 | 0.58 | 0.58 | 92 | 1009.3 |
| 20260506160055 | 16 | 261 | 4.8 | 14.5 | 0.03 | 0.58 | 0.58 | 92 | 1009.4 |
| 20260506155548 | 16 | 188 | 6.4 | 14.5 | 0.03 | 0.58 | 0.58 | 92 | 1009.4 |
| 20260506155048 | 15 | 148 | 4.8 | 14.5 | 0.03 | 0.58 | 0.58 | 93 | 1009.1 |
| 20260506154555 | 15 | 196 | 4.8 | 19.3 | 0.05 | 0.58 | 0.58 | 93 | 1009.2 |
| 20260506154050 | 15 | 240 | 4.8 | 19.3 | 0.05 | 0.58 | 0.58 | 93 | 1009.3 |
| 20260506153547 | 15 | 160 | 6.4 | 16.1 | 0.05 | 0.58 | 0.58 | 93 | 1009.4 |
| 20260506153100 | 15 | 163 | 4.8 | 14.5 | 0.05 | 0.58 | 0.58 | 93 | 1009.5 |
| 20260506152547 | 15 | 157 | 4.8 | 17.7 | 0.08 | 0.58 | 0.58 | 93 | 1009.4 |
| 20260506152047 | 15 | 227 | 6.4 | 17.7 | 0.05 | 0.56 | 0.56 | 93 | 1009.4 |
| 20260506151556 | 15 | 261 | 4.8 | 16.1 | 0.10 | 0.56 | 0.56 | 93 | 1009.4 |
| 20260506151047 | 15 | 250 | 4.8 | 16.1 | 0.10 | 0.56 | 0.56 | 93 | 1009.6 |
| 20260506150547 | 15 | 181 | 4.8 | 12.9 | 0.13 | 0.56 | 0.56 | 93 | 1009.7 |
| 20260506150052 | 15 | 160 | 4.8 | 12.9 | 0.15 | 0.56 | 0.56 | 93 | 1009.8 |
| 20260506145551 | 15 | 174 | 3.2 | 16.1 | 0.20 | 0.56 | 0.56 | 93 | 1009.9 |
| 20260506145047 | 15 | 210 | 4.8 | 16.1 | 0.20 | 0.56 | 0.56 | 93 | 1010.1 |
| 20260506144551 | 15 | 171 | 3.2 | 12.9 | 0.20 | 0.53 | 0.53 | 93 | 1010.2 |
| 20260506144048 | 15 | 170 | 3.2 | 9.7 | 0.23 | 0.53 | 0.53 | 93 | 1010.2 |
| 20260506143548 | 15 | 247 | 4.8 | 11.3 | 0.28 | 0.53 | 0.53 | 93 | 1010.1 |
| 20260506143050 | 15 | 122 | 4.8 | 12.9 | 0.28 | 0.53 | 0.53 | 93 | 1010.2 |
| 20260506142547 | 15 | 201 | 3.2 | 12.9 | 0.28 | 0.51 | 0.51 | 93 | 1010.1 |
| 20260506142048 | 15 | 255 | 3.2 | 14.5 | 0.28 | 0.51 | 0.51 | 93 | 1009.9 |
| 20260506141552 | 15 | 145 | 3.2 | 14.5 | 0.25 | 0.46 | 0.46 | 93 | 1009.9 |
| 20260506141048 | 15 | 158 | 3.2 | 16.1 | 0.25 | 0.46 | 0.46 | 92 | 1010.1 |
| 20260506140549 | 15 | 109 | 6.4 | 16.1 | 0.25 | 0.43 | 0.43 | 92 | 1009.9 |
| 20260506140053 | 15 | 165 | 4.8 | 12.9 | 0.25 | 0.41 | 0.41 | 92 | 1009.9 |
| 20260506135548 | 15 | 213 | 4.8 | 12.9 | 0.23 | 0.36 | 0.36 | 92 | 1010.0 |
| 20260506135048 | 15 | 216 | 3.2 | 11.3 | 0.23 | 0.36 | 0.36 | 92 | 1010.0 |
| 20260506134550 | 15 | 162 | 3.2 | 9.7 | 0.23 | 0.33 | 0.33 | 92 | 1010.0 |
| 20260506134048 | 15 | 147 | 3.2 | 8.0 | 0.20 | 0.30 | 0.30 | 92 | 1010.1 |
| 20260506133547 | 15 | 133 | 3.2 | 9.7 | 0.18 | 0.25 | 0.25 | 92 | 1010.3 |
| 20260506133054 | 15 | 179 | 1.6 | 14.5 | 0.20 | 0.25 | 0.25 | 92 | 1010.6 |
| 20260506132550 | 15 | 124 | 4.8 | 14.5 | 0.18 | 0.23 | 0.23 | 92 | 1010.8 |
| 20260506132049 | 15 | 224 | 4.8 | 12.9 | 0.20 | 0.23 | 0.23 | 91 | 1010.7 |
| 20260506131551 | 15 | 257 | 3.2 | 8.0 | 0.18 | 0.20 | 0.20 | 91 | 1010.5 |
| 20260506131048 | 15 | 174 | 3.2 | 8.0 | 0.18 | 0.20 | 0.20 | 91 | 1010.2 |
| 20260506130554 | 15 | 214 | 3.2 | 8.0 | 0.15 | 0.18 | 0.18 | 91 | 1010.1 |
| 20260506130050 | 15 | 212 | 3.2 | 8.0 | 0.15 | 0.15 | 0.15 | 90 | 1010.0 |
| 20260506125549 | 15 | 227 | 1.6 | 6.4 | 0.13 | 0.13 | 0.13 | 90 | 1010.0 |
| 20260506125048 | 16 | 191 | 1.6 | 6.4 | 0.13 | 0.13 | 0.13 | 90 | 1010.0 |